Location: Luna
(33.8188°N, 108.9564°W)
Time: 02:19:42
(UTC+00:00)

BlueWalker 3 - Pass Details

Date: 11 December 2022
Orbit: 499 x 517 km, 53.2° (Epoch: 05 February)

Event Time Altitude Azimuth Distance (km) Brightness Sun altitude
Rises 00:49:05 0° 328° (NNW) 2,621 5.7 -8.7°
Reaches altitude 10° 00:51:45 10° 345° (NNW) 1,728 4.6 -9.2°
Maximum altitude 00:54:42 20° 34° (NE) 1,211 3.4 -9.8°
Enters shadow 00:56:42 14° 72° (ENE) 1,467 3.6 -10.2°
